Flag for Canada Weather past 2 weeks in East Hants, Nova Scotia, Canada

Now
39 °F

Fog.


Feels Like: 34 °F
Forecast: 30 / 45 °F
Wind: 8 mph from Southwest

Location: Halifax International Airport

Current Time: Apr 18, 2015 at 1:22:27 AM

Latest Report: Apr 18, 2015 at 12:00 AM


Visibility: 0 mi

Pressure: 29.74 "Hg

Humidity: 100%

Dew point: 39 °F

Location of East HantsLocation

Historic Weather in East Hants — Graph

°F

East Hants temperature yesterday

Maximum temperature yesterday: 55 °F (at 1:00 PM)
Minimum temperature yesterday: 30 °F (at 1:00 AM)
Average temperature yesterday: 41 °F

Past Weeks' High & Low Weather Summary

 TemperatureHumidityPressure
High55 °F (Apr 17, 1:00 PM)100% (Apr 3, 3:00 AM)30.57 "Hg (Apr 3, 3:00 AM)
Low16 °F (Apr 6, 7:00 AM)27% (Apr 5, 2:00 PM)29.13 "Hg (Apr 4, 6:00 PM)
Average35 °F74%30.06 "Hg
* Reported Apr 2 11:00 PM — Apr 17 11:00 PM, East Hants, Weather by CustomWeather, © 2015

Note: Actual official high and low records may vary slightly from our data, if they occured in-between our weather recording intervals... More about our weather records

Advertising

East Hants weather history for previous 24 hours

 ConditionsComfort  
Time TempWeatherWind HumidityBarometerVisibility
11:00 PM
Fri, Apr 17
39 °FPassing clouds.9 mph100%29.74 "Hg10 mi
10:00 PM41 °FClear.8 mph93%29.75 "Hg15 mi
9:00 PM43 °FPassing clouds.7 mph87%29.75 "Hg15 mi
8:00 PM43 °FPassing clouds.9 mph87%29.75 "Hg15 mi
7:00 PM46 °FBroken clouds.15 mph82%29.74 "Hg15 mi
6:00 PM48 °FBroken clouds.21 mph82%29.74 "Hg15 mi
5:00 PM46 °FLight rain. Fog.14 mph93%29.75 "Hg6 mi
4:47 PM45 °FLight rain. Fog.13 mph100%29.74 "Hg6 mi
4:00 PM46 °FLight rain. Fog.12 mph82%29.76 "Hg6 mi
3:00 PM54 °FMostly cloudy.12 mph58%29.78 "Hg15 mi
2:00 PM55 °FMostly cloudy.23 mph51%29.81 "Hg15 mi
1:00 PM55 °FBroken clouds.15 mph51%29.83 "Hg15 mi
12:00 PM52 °FPartly sunny.16 mph54%29.88 "Hg15 mi
11:00 AM45 °FOvercast.20 mph66%29.90 "Hg15 mi
10:00 AM43 °FPartly sunny.22 mph66%29.93 "Hg15 mi
9:00 AM39 °FPartly sunny.18 mph70%29.97 "Hg15 mi
8:00 AM36 °FPartly sunny.12 mph70%30.01 "Hg15 mi
7:00 AM34 °FPassing clouds.15 mph70%30.01 "Hg15 mi
6:00 AM34 °FPassing clouds.17 mph60%30.02 "Hg15 mi
5:00 AM34 °FClear.12 mph56%30.06 "Hg15 mi
4:00 AM32 °FClear.9 mph55%30.10 "Hg15 mi
3:00 AM32 °FClear.9 mph60%30.14 "Hg15 mi
2:00 AM30 °FPassing clouds.12 mph75%30.17 "Hg15 mi
1:00 AM30 °FPassing clouds.13 mph80%30.21 "Hg15 mi
Weather by CustomWeather, © 2015

See weather overviewHow to use our weather pages